Canyon City, OR

6:31 AM PST on February 19, 2017 (GMT -0800)
Grant County Regional

Weather History for KGCD - December, 2012

Change the Weather History Date:

Friday, December 7, 2012

  Actual Average (KBNO) Record (KBNO)
Temperature  
Mean Temperature 36 °F -  
Max Temperature 41 °F 35 °F 60 °F (1938)
Min Temperature 32 °F 17 °F -20 °F (2013)
Degree Days  
Heating Degree Days 28    
Moisture  
Dew Point 27 °F    
Average Humidity 71    
Maximum Humidity 81    
Minimum Humidity 57    
Precipitation  
Precipitation 0.00 in - - ()
Sea Level Pressure  
Sea Level Pressure 30.04 in    
Wind  
Wind Speed 6 mph (WSW)    
Max Wind Speed 16 mph    
Max Gust Speed 20 mph    
Visibility 10 miles    
Events      
Averages and records for this station are not official NWS values.
T = Trace of Precipitation, MM = Missing Value Source: NWS Daily Summary

Daily Weather History Graph

Daily Weather History Graph

Search for Another Location

Airport or City:

Trip Planner

Search our weather history database for the weather conditions in past years. The results will help you decide how hot, cold, wet, or windy it might be!

Date:

Astronomy

Dec. 07, 2012 Rise Set
Actual Time 7:18 AM PST 4:16 PM PST
Civil Twilight 6:45 AM PST 4:49 PM PST
Nautical Twilight 6:09 AM PST 5:26 PM PST
Astronomical Twilight 5:33 AM PST 6:01 PM PST
Moon 12:30 AM PST (12/7) 12:27 PM PST (12/7)
Length of Visible Light 10h 03m
Length of Day
8h 57m
Last Quarter, 37% of the Moon is Illuminated
Dec 7
Last Quarter
Dec 13
New
Dec 19
First Quarter
Dec 28
Full
Jan 4
Last Quarter

Hourly Weather History & Observations

Time (PST) Temp. Windchill Dew Point Humidity Pressure Visibility Wind Dir Wind Speed Gust Speed Precip Events Conditions
12:15 AM 33.8 °F 30.8 °F 26.6 °F 75% 30.12 in 10.0 mi West 3.5 mph - N/A   Overcast
12:35 AM 32.0 °F - 26.6 °F 80% 30.12 in 10.0 mi Calm Calm - N/A   Overcast
12:55 AM 32.0 °F 28.7 °F 26.6 °F 80% 30.12 in 10.0 mi West 3.5 mph - N/A   Overcast
1:15 AM 32.0 °F 28.7 °F 26.6 °F 80% 30.12 in 10.0 mi SW 3.5 mph - N/A   Overcast
1:35 AM 32.0 °F 28.7 °F 26.6 °F 80% 30.12 in 10.0 mi WSW 3.5 mph - N/A   Overcast
1:55 AM 32.0 °F 28.7 °F 26.6 °F 80% 30.12 in 10.0 mi SSW 3.5 mph - N/A   Mostly Cloudy
2:15 AM 32.0 °F 27.5 °F 26.6 °F 80% 30.12 in 10.0 mi SSW 4.6 mph - N/A   Overcast
2:35 AM 33.8 °F 30.8 °F 26.6 °F 75% 30.12 in 10.0 mi SW 3.5 mph - N/A   Overcast
2:55 AM 33.8 °F 27.0 °F 26.6 °F 75% 30.12 in 10.0 mi SSW 8.1 mph - N/A   Overcast
3:15 AM 33.8 °F 28.6 °F 26.6 °F 75% 30.12 in 10.0 mi SW 5.8 mph - N/A   Overcast
3:35 AM 33.8 °F 29.6 °F 26.6 °F 75% 30.11 in 10.0 mi SSW 4.6 mph - N/A   Overcast
3:55 AM 33.8 °F 29.6 °F 26.6 °F 75% 30.10 in 10.0 mi SSW 4.6 mph - N/A   Overcast
4:15 AM 33.8 °F 27.7 °F 26.6 °F 75% 30.11 in 10.0 mi SSW 6.9 mph - N/A   Mostly Cloudy
4:35 AM 33.8 °F 26.4 °F 26.6 °F 75% 30.10 in 10.0 mi South 9.2 mph - N/A   Mostly Cloudy
4:55 AM 33.8 °F 25.8 °F 26.6 °F 75% 30.10 in 10.0 mi South 10.4 mph - N/A   Scattered Clouds
5:15 AM 33.8 °F 28.6 °F 26.6 °F 75% 30.10 in 10.0 mi SW 5.8 mph - N/A   Scattered Clouds
5:35 AM 33.8 °F 29.6 °F 26.6 °F 75% 30.10 in 10.0 mi SW 4.6 mph - N/A   Mostly Cloudy
5:55 AM 33.8 °F 29.6 °F 24.8 °F 70% 30.10 in 10.0 mi South 4.6 mph - N/A   Overcast
6:15 AM 32.0 °F 27.5 °F 26.6 °F 80% 30.10 in 10.0 mi SE 4.6 mph - N/A   Overcast
6:35 AM 32.0 °F 28.7 °F 26.6 °F 80% 30.10 in 10.0 mi SE 3.5 mph - N/A   Overcast
6:55 AM 32.0 °F 28.7 °F 26.6 °F 80% 30.10 in 10.0 mi SE 3.5 mph - N/A   Overcast
7:15 AM 32.0 °F 27.5 °F 26.6 °F 80% 30.09 in 10.0 mi East 4.6 mph - N/A   Mostly Cloudy
7:35 AM 32.0 °F - 26.6 °F 80% 30.09 in 10.0 mi Calm Calm - N/A   Mostly Cloudy
7:55 AM 33.8 °F 25.8 °F 26.6 °F 75% 30.09 in 10.0 mi South 10.4 mph - N/A   Overcast
8:15 AM 35.6 °F 28.0 °F 26.6 °F 70% 30.08 in 10.0 mi SSW 10.4 mph 13.8 mph N/A   Overcast
8:35 AM 33.8 °F - 26.6 °F 75% 30.08 in 10.0 mi Calm Calm - N/A   Overcast
8:55 AM 35.6 °F 28.6 °F 26.6 °F 70% 30.08 in 10.0 mi South 9.2 mph - N/A   Overcast
9:15 AM 33.8 °F 29.6 °F 26.6 °F 75% 30.08 in 10.0 mi East 4.6 mph - N/A   Scattered Clouds
9:35 AM 33.8 °F 28.6 °F 26.6 °F 75% 30.07 in 10.0 mi ESE 5.8 mph - N/A   Clear
9:55 AM 33.8 °F 28.6 °F 26.6 °F 75% 30.07 in 10.0 mi East 5.8 mph - N/A   Clear
10:15 AM 35.6 °F 28.0 °F 26.6 °F 70% 30.07 in 10.0 mi South 10.4 mph - N/A   Clear
10:35 AM 37.4 °F 33.8 °F 28.4 °F 70% 30.07 in 10.0 mi West 4.6 mph - N/A   Clear
10:55 AM 37.4 °F 32.8 °F 28.4 °F 70% 30.06 in 10.0 mi West 5.8 mph - N/A   Mostly Cloudy
11:15 AM 37.4 °F 33.8 °F 28.4 °F 70% 30.05 in 10.0 mi WSW 4.6 mph - N/A   Overcast
11:35 AM 37.4 °F 32.1 °F 28.4 °F 70% 30.04 in 10.0 mi West 6.9 mph - N/A   Mostly Cloudy
11:55 AM 39.2 °F 34.2 °F 28.4 °F 65% 30.03 in 10.0 mi WNW 6.9 mph - N/A   Clear
12:15 PM 37.4 °F 31.4 °F 26.6 °F 65% 30.02 in 10.0 mi NW 8.1 mph - N/A   Clear
12:35 PM 37.4 °F 31.4 °F 26.6 °F 65% 30.01 in 10.0 mi WNW 8.1 mph - N/A   Clear
12:55 PM 37.4 °F 30.3 °F 28.4 °F 70% 30.01 in 10.0 mi WNW 10.4 mph - N/A   Clear
1:15 PM 37.4 °F 30.3 °F 28.4 °F 70% 30.01 in 10.0 mi West 10.4 mph - N/A   Clear
1:35 PM 37.4 °F 32.1 °F 28.4 °F 70% 30.00 in 10.0 mi West 6.9 mph - N/A   Clear
1:55 PM 39.2 °F 31.6 °F 26.6 °F 61% 29.99 in 10.0 mi SW 12.7 mph - N/A   Clear
2:15 PM 41.0 °F 33.9 °F 26.6 °F 57% 30.00 in 10.0 mi SW 12.7 mph 18.4 mph N/A   Scattered Clouds
2:35 PM 39.2 °F 32.5 °F 26.6 °F 61% 30.00 in 10.0 mi SW 10.4 mph - N/A   Scattered Clouds
2:55 PM 39.2 °F 32.0 °F 26.6 °F 61% 30.00 in 10.0 mi SW 11.5 mph - N/A   Mostly Cloudy
3:15 PM 39.2 °F 32.0 °F 26.6 °F 61% 30.00 in 10.0 mi SW 11.5 mph - N/A   Overcast
3:35 PM 39.2 °F 33.0 °F 26.6 °F 61% 30.00 in 10.0 mi West 9.2 mph - N/A   Overcast
3:55 PM 39.2 °F 32.5 °F 26.6 °F 61% 29.99 in 10.0 mi WSW 10.4 mph - N/A   Overcast
4:15 PM 39.2 °F 32.5 °F 26.6 °F 61% 29.99 in 10.0 mi WSW 10.4 mph - N/A   Overcast
4:35 PM 37.4 °F 29.8 °F 26.6 °F 65% 29.99 in 10.0 mi WSW 11.5 mph - N/A   Overcast
5:15 PM 37.4 °F 29.3 °F 26.6 °F 65% 29.98 in 10.0 mi SW 12.7 mph - N/A   Mostly Cloudy
5:35 PM 37.4 °F 30.3 °F 26.6 °F 65% 29.99 in 10.0 mi WSW 10.4 mph - N/A   Mostly Cloudy
5:55 PM 37.4 °F 31.4 °F 26.6 °F 65% 29.98 in 10.0 mi WSW 8.1 mph - N/A   Overcast
6:15 PM 37.4 °F 31.4 °F 26.6 °F 65% 29.98 in 10.0 mi West 8.1 mph - N/A   Overcast
6:35 PM 37.4 °F 30.3 °F 26.6 °F 65% 29.97 in 10.0 mi WSW 10.4 mph 16.1 mph N/A   Mostly Cloudy
6:55 PM 37.4 °F 32.1 °F 26.6 °F 65% 29.98 in 10.0 mi West 6.9 mph - N/A   Mostly Cloudy
7:15 PM 37.4 °F 32.8 °F 26.6 °F 65% 29.98 in 10.0 mi West 5.8 mph - N/A   Overcast
7:35 PM 37.4 °F 32.1 °F 28.4 °F 70% 29.98 in 10.0 mi West 6.9 mph - N/A   Overcast
7:55 PM 37.4 °F 32.1 °F 28.4 °F 70% 29.98 in 10.0 mi WSW 6.9 mph - N/A   Overcast
8:15 PM 37.4 °F 31.4 °F 26.6 °F 65% 29.97 in 10.0 mi West 8.1 mph - N/A   Overcast
8:35 PM 37.4 °F 30.3 °F 26.6 °F 65% 29.98 in 10.0 mi West 10.4 mph - N/A   Overcast
8:55 PM 37.4 °F 32.8 °F 26.6 °F 65% 29.98 in 10.0 mi WSW 5.8 mph - N/A   Overcast
9:15 PM 37.4 °F 31.4 °F 28.4 °F 70% 29.98 in 10.0 mi West 8.1 mph - N/A   Overcast
9:35 PM 37.4 °F 30.8 °F 28.4 °F 70% 29.98 in 10.0 mi West 9.2 mph - N/A   Overcast
9:55 PM 37.4 °F 32.8 °F 28.4 °F 70% 29.98 in 10.0 mi WSW 5.8 mph - N/A   Overcast
10:15 PM 37.4 °F 29.3 °F 28.4 °F 70% 29.98 in 10.0 mi West 12.7 mph 18.4 mph N/A   Overcast
10:35 PM 37.4 °F 28.5 °F 28.4 °F 70% 29.99 in 10.0 mi West 15.0 mph 19.6 mph N/A   Overcast
10:55 PM 37.4 °F 29.3 °F 30.2 °F 75% 30.00 in 10.0 mi West 12.7 mph - N/A   Overcast
11:15 PM 37.4 °F 28.2 °F 28.4 °F 70% 30.01 in 10.0 mi West 16.1 mph - N/A   Overcast
11:35 PM 35.6 °F 29.9 °F 30.2 °F 81% 30.01 in 10.0 mi NNW 6.9 mph - N/A   Overcast
11:55 PM 35.6 °F 27.5 °F 30.2 °F 81% 30.02 in 10.0 mi West 11.5 mph - N/A   Overcast